RS-38S
1 57189U 23091Z   26141.82106138  .00012237  00000-0  36136-3 0  9995
2 57189  97.5098 210.7952 0008418 156.3405 203.8227 15.35078461160642
SONATE-2
1 59112U 24043Q   26141.86405082  .00026703  00000-0  37559-3 0  9998
2 59112  97.5516 290.6923 0005753 293.3199  66.7449 15.56638828123790
GRBBeta
1 60237U 24128C   26141.80354678  .00003354  00000-0  23629-3 0  9990
2 60237  61.9903 308.8177 0044286 129.2550 231.2486 15.06394080102296
Curium One
1 60242U 24128H   26141.85443346  .00006924  00000-0  40435-3 0  9992
2 60242  61.9792 299.0105 0043832 125.6330 234.8861 15.12038990102470
ROBUSTA-3A
1 60243U 24128J   26141.87088968  .00006530  00000-0  39048-3 0  9991
2 60243  61.9870 301.2784 0045146 122.9128 237.6322 15.11209692102440
CatSat
1 60246U 24125J   26141.53317328  .00035477  00000-0  51485-3 0  9990
2 60246  97.2111 353.7482 0021099 279.4556  80.4314 15.55483221103248
HYPERVIEW-1G (RS66S)
1 61772U 24199AP  26141.84364228  .00082311  00000-0  70146-3 0  9995
2 61772  97.2925  20.3602 0005651  37.2681 322.8973 15.69279437130535
AO-123
1 61781U 24199AY  26141.83672274  .00005885  00000-0  17373-3 0  9991
2 61781  97.3031  10.7481 0015304  49.0240 311.2325 15.35242025129885
JINJUSat 1B
1 63210U 25052A   26141.64564802  .00010985  00000-0  35152-3 0  9997
2 63210  97.4028  38.3793 0004023 146.4632 213.6865 15.32573634 66037
NUSHSAT 1
1 63211U 25052B   26141.73005961  .00013995  00000-0  41664-3 0  9993
2 63211  97.4003  38.9429 0003768 145.3109 214.8381 15.34814142 66080
TEVEL2-4
1 63213U 25052D   26141.70008453  .00012425  00000-0  38506-3 0  9999
2 63213  97.3928  38.0639 0002747 152.6877 207.4511 15.33570225 66050
TEVEL2-5
1 63214U 25052E   26141.65247975  .00012280  00000-0  38252-3 0  9995
2 63214  97.3927  37.9715 0002665 152.7100 207.4282 15.33409785 66048
TEVEL2-6
1 63215U 25052F   26141.59890998  .00012324  00000-0  38436-3 0  9991
2 63215  97.3928  37.9026 0002776 153.8216 206.3167 15.33369876 66033
TEVEL2-1
1 63217U 25052H   26141.42319646  .00011240  00000-0  35637-3 0  9997
2 63217  97.3904  37.3820 0002251 164.9944 195.1365 15.32869635 65990
TEVEL2-3
1 63218U 25052J   26141.22291692  .00011634  00000-0  36824-3 0  9992
2 63218  97.3903  37.2007 0002198 167.5509 192.5788 15.32914108 65965
TEVEL2-2
1 63219U 25052K   26141.42364117  .00011935  00000-0  37813-3 0  9991
2 63219  97.3905  37.3842 0002173 166.3510 193.7791 15.32876877 65998
TEVEL2-9
1 63237U 25052AD  26141.69399681  .00010037  00000-0  33761-3 0  9994
2 63237  97.3962  37.0853 0004554 220.1881 139.9024 15.30988116 65972
TEVEL2-7
1 63238U 25052AE  26141.66464890  .00010491  00000-0  35574-3 0  9995
2 63238  97.3967  36.9830 0004687 220.4803 139.6090 15.30715220 65968
TEVEL2-8
1 63239U 25052AF  26140.95351763  .00010564  00000-0  35857-3 0  9996
2 63239  97.3969  36.2522 0004539 224.9979 135.0895 15.30681443 65851
HYDRA-W
1 63490U 25052BL  26113.93882235  .05662091  24406-5  29537-2 0  9997
2 63490  97.3690  18.2798 0008685 203.5899 156.4993 16.20186780 62336
HADES-ICM (SO-125)
1 63492U 25052BN  26141.26653903  .06532167  24596-5  20834-2 0  9996
2 63492  97.3646  46.2798 0012082 212.8267 147.2275 16.26141053 66568
SPIRONE
1 66657U 25274H   26141.79040404  .00001052  00000-0  10537-3 0  9999
2 66657  97.7480  71.4620 0013729 100.5421 259.7346 14.93419495 26285
K-HERO
1 66660U 25274L   26141.80242635  .00001206  00000-0  11874-3 0  9991
2 66660  97.7487  71.6153 0015561 104.7426 255.5519 14.93842995 26298
SNUGLITE-III DURI
1 66661U 25274M   26141.79101138  .00000814  00000-0  81764-4 0  9992
2 66661  97.7484  71.6237 0016141 105.7130 254.5871 14.93895840 26294
SilverSat
1 66909U 98067XV  26113.44966717  .07226154  12288-4  11979-2 0  9998
2 66909  51.6027 190.0749 0007952 333.4666  26.5949 16.32457272 22308
SAKHACUBE-CHOLBON
1 67290U 25313AU  26141.84186571  .00007108  00000-0  29292-3 0  9995
2 67290  97.3934 217.2158 0010944  91.5192 268.7299 15.24338989 21965
RS95S (QMR-KWT-2)
1 67291U 25313AV  26141.85237523  .00010095  00000-0  40054-3 0  9999
2 67291  97.3934 217.3513 0010543  91.2168 269.0277 15.25506329 21974
Ten-Koh2
1 68261U 25241B   26141.12527701  .00004925  00000-0  21723-3 0  9994
2 68261  51.6590  88.3906 0006535  60.8298 299.3333 15.23508494 10786
JACK-002
1 68417U 26067B   26141.81522266  .00004908  00000-0  23765-3 0  9990
2 68417  97.4556 100.7423 0003163  50.4395 309.7119 15.19019063  7945
DISCO 2
1 68431U 26067R   26141.10534248  .00003864  00000-0  19000-3 0  9998
2 68431  97.4593 100.0329 0004419  89.6647 270.5094 15.18609810  7838
HADES-SA (SpinnyONE)
1 68446U 26067AG  26140.67798287  .00011372  00000-0  56129-3 0  9996
2 68446  97.4403  99.4112 0008038 151.4172 208.7504 15.18027540  7751
PARUS-6U1
1 68456U 26067AS  26141.87608873  .00003921  00000-0  20057-3 0  9993
2 68456  97.4542 100.6536 0006757 140.1256 220.0474 15.17203197  7942
SAL-E
1 68458U 26067AU  26141.87474542  .00005282  00000-0  26802-3 0  9995
2 68458  97.4468 100.6069 0006783 147.4956 212.6697 15.17331417  7949
FSI-SAT 2
1 68792U 26088A   26141.38906227  .00002320  00000-0  16051-3 0  9990
2 68792  97.5040 291.3318 0014293 193.2995 166.7857 15.06579140  4252
OrigamiSat 2
1 68795U 26088D   26141.82610571  .00003064  00000-0  20247-3 0  9994
2 68795  97.5052 291.8243 0016239 165.9427 194.2256 15.08035037  4329
ARICA 2
1 68796U 26088E   26141.35945580  .00003487  00000-0  22903-3 0  9994
2 68796  97.5034 291.3665 0016243 165.9205 194.2479 15.08169624  4251
WASEDA-SAT-ZERO-II
1 68797U 26088F   26141.82250461  .00004979  00000-0  32419-3 0  9994
2 68797  97.5038 291.8216 0016237 164.2395 195.9342 15.08287059  4326
MANGARO-II-Piscus
1 68798U 26088G   26141.81648167  .00003064  00000-0  19936-3 0  9991
2 68798  97.5044 291.8334 0019636 167.4894 192.6826 15.08555862  4321
IO-86
1 40931U          25360.30710720  .00000000  00000-0  12800-3 0    00
2 40931   6.0006 332.5373 0012733 338.8432   8.1437 14.79075515    01
LILIUM-4
1 71922C 26067AC  26089.50133053 -.00014632  00000+0 -74472-3 0    04
2 71922  97.4497  49.1617 0004341   5.9603 355.7042 15.16896692    16
